Weather History for Fort Worth, TX

Change the Weather History Date:

Thursday, April 19, 2012

  Actual Average Record
Temperature  
Mean Temperature 68 °F -  
Max Temperature 81 °F 74 °F 95 °F (2011)
Min Temperature 57 °F 53 °F 36 °F (2013)
Cooling Degree Days 4    
Growing Degree Days 18 (Base 50)    
Moisture  
Dew Point 51 °F    
Average Humidity 53    
Maximum Humidity 72    
Minimum Humidity 38    
Precipitation  
Precipitation 0.00 in - - ()
Sea Level Pressure  
Sea Level Pressure 29.84 in    
Wind  
Wind Speed 12 mph (SSE)    
Max Wind Speed 20 mph    
Max Gust Speed 30 mph    
Visibility 10 miles    
Events      
Averages and records for this station are not official NWS values.
T = Trace of Precipitation, MM = Missing Value Source: NWS Daily Summary

Daily Weather History Graph

Daily Weather History Graph

Search for Another Location

Airport:

Trip Planner

Search our weather history database for the weather conditions in past years. The results will help you decide how hot, cold, wet, or windy it might be!

Date:

Astronomy

Apr. 19, 2012 Rise Set
Actual Time 6:54 AM CDT 8:02 PM CDT
Civil Twilight 6:28 AM CDT 8:28 PM CDT
Nautical Twilight 5:58 AM CDT 8:58 PM CDT
Astronomical Twilight 5:27 AM CDT 9:30 PM CDT
Moon 5:45 AM CDT (4/19) 6:53 PM CDT (4/19)
Length of Visible Light 13h 59m
Length of Day
13h 08m
Waning Crescent, 2% of the Moon is Illuminated
Apr 19
Waning Crescent
Apr 21
New
Apr 29
First Quarter
May 5
Full
May 12
Last Quarter

Hourly Weather History & Observations

Time (CDT) Temp. Heat Index Dew Point Humidity Pressure Visibility Wind Dir Wind Speed Gust Speed Precip Events Conditions
12:53 AM 61.0 °F - 50.0 °F 67% 29.95 in 10.0 mi SSE 11.5 mph - N/A   Clear
1:53 AM 61.0 °F - 48.9 °F 64% 29.94 in 10.0 mi SSE 9.2 mph - N/A   Clear
2:53 AM 61.0 °F - 46.9 °F 60% 29.93 in 10.0 mi SSE 9.2 mph - N/A   Clear
3:53 AM 61.0 °F - 46.0 °F 58% 29.93 in 10.0 mi South 8.1 mph - N/A   Clear
4:53 AM 59.0 °F - 46.9 °F 64% 29.92 in 10.0 mi SSE 9.2 mph - N/A   Clear
5:53 AM 57.9 °F - 46.9 °F 67% 29.92 in 10.0 mi SSE 9.2 mph - N/A   Clear
6:53 AM 57.9 °F - 48.0 °F 70% 29.92 in 10.0 mi SSE 8.1 mph - N/A   Clear
7:53 AM 59.0 °F - 50.0 °F 72% 29.92 in 10.0 mi SSE 10.4 mph - N/A   Clear
8:53 AM 63.0 °F - 52.0 °F 67% 29.92 in 10.0 mi SSE 11.5 mph - N/A   Clear
9:53 AM 69.1 °F - 52.0 °F 54% 29.91 in 10.0 mi South 11.5 mph 21.9 mph N/A   Clear
10:53 AM 73.0 °F - 48.9 °F 42% 29.90 in 10.0 mi South 18.4 mph 27.6 mph N/A   Clear
11:53 AM 75.0 °F - 48.9 °F 40% 29.88 in 10.0 mi South 16.1 mph 29.9 mph N/A   Clear
12:53 PM 78.1 °F - 51.1 °F 39% 29.86 in 10.0 mi South 18.4 mph 25.3 mph N/A   Clear
1:53 PM 79.0 °F - 51.1 °F 38% 29.83 in 10.0 mi South 18.4 mph 28.8 mph N/A   Clear
2:53 PM 80.1 °F 79.9 °F 53.1 °F 39% 29.80 in 10.0 mi South 19.6 mph 25.3 mph N/A   Clear
3:53 PM 80.1 °F 80.0 °F 54.0 °F 40% 29.77 in 10.0 mi SSE 16.1 mph 26.5 mph N/A   Clear
4:53 PM 80.1 °F 80.0 °F 54.0 °F 40% 29.74 in 10.0 mi SSE 16.1 mph 24.2 mph N/A   Clear
5:53 PM 79.0 °F - 54.0 °F 42% 29.72 in 10.0 mi SSE 19.6 mph 27.6 mph N/A   Clear
6:53 PM 77.0 °F - 53.1 °F 43% 29.70 in 10.0 mi SSE 18.4 mph 25.3 mph N/A   Clear
7:53 PM 75.0 °F - 54.0 °F 48% 29.71 in 10.0 mi SSE 16.1 mph - N/A   Clear
8:53 PM 72.0 °F - 55.0 °F 55% 29.70 in 10.0 mi SSE 15.0 mph - N/A   Clear
9:53 PM 73.0 °F - 55.0 °F 53% 29.72 in 10.0 mi SSE 15.0 mph - N/A   Clear
10:53 PM 72.0 °F - 55.9 °F 57% 29.77 in 10.0 mi NE 9.2 mph - N/A   Clear
11:53 PM 70.0 °F - 55.9 °F 61% 29.76 in 10.0 mi East 6.9 mph - N/A   Clear